Location: East Guldeford
(50.9500°N, 0.7500°E)
Time: 09:55:30
(UTC+00:00)

Cosmos 1271 Rocket - Pass Details

Date: 12 May 2021
Orbit: 497 x 545 km, 81.2° (Epoch: 16 June)

Event Time Altitude Azimuth Distance (km) Brightness Sun altitude
Exits shadow 21:40:36 15° 196° (SSW) 1,522 4.7 -14.8°
Maximum altitude 21:43:53 79° 282° (WNW) 563 2.9 -15.1°
Drops below altitude 10° 21:47:55 10° 10° (N) 1,826 6.2 -15.4°
Sets 21:50:06 0° 12° (NNE) 2,722 7.1 -15.6°
